Location: Gleizolles
(44.4833°N, 6.7667°E)
Time: 16:28:49
(UTC+00:00)

Tiros 1 - Pass Details

Date: 02 July 2024
Orbit: 624 x 656 km, 48.4° (Epoch: 13 July)

Event Time Altitude Azimuth Distance (km) Brightness Sun altitude
Rises 18:34:06 0° 205° (SSW) 2,899 10.5 6.4°
Reaches altitude 10° 18:36:46 10° 191° (SSW) 1,992 9.5 6.0°
Maximum altitude 18:40:24 23° 139° (SE) 1,314 8.3 5.4°
Drops below altitude 10° 18:44:02 10° 86° (E) 1,994 9.2 4.8°
Sets 18:46:42 0° 72° (ENE) 2,904 10.1 4.4°
